Location: Lane
(33.5226°N, 79.8788°W)
Time: 10:47:57
(UTC+00:00)

Altair - Pass Details

Date: 03 October 2022
Orbit: 1501 x 1682 km, 47.2° (Epoch: 30 November)

Event Time Altitude Azimuth Distance (km) Brightness Sun altitude
Rises 14:35:52 0° 301° (WNW) 4,880 9.7 37.9°
Reaches altitude 10° 14:39:13 10° 308° (NW) 3,911 9.2 38.4°
Maximum altitude 14:48:50 46° 20° (NNE) 2,138 8.6 40.0°
Drops below altitude 10° 14:58:29 10° 91° (E) 3,936 10.3 41.4°
Sets 15:01:51 0° 98° (E) 4,914 10.7 41.9°
